Vertical_Velocity
4 -2 -2 -0 0 -1 -1 -1 -0 -2 0 0 0 -0 -0 -1 -0 -0 0 1 -2 0 -1 -1 -1 -0 -1 0 0 0 1 -1 -0 2 -0 -0 -1 1 0 4 5 -1 -1
6 -2 -1 -0 -0 1 2 -1 0 1 2 -2 -2 -4 -2 -1 -3 -1 -1 0 -0 -1 -0 -1 0 -1 -1 -1 1 -0 -1 -1 -2 1 -0 -0 -1 -0 -0 1 10 1 6
1 2 0 -1 -0 -0 -3 3 -2 -1 -1 -1 0 1 -1 -1 -2 -2 -2 -1 -2 -1 -0 -0 -0 -1 -2 -0 -2 2 0 -0 0 0 -1 0 1 1 -1 -1 -1 -2 -1
-2 1 -1 -0 -2 -0 -0 2 1 1 -0 0 -2 -1 -1 -1 0 -1 -2 -0 -1 -0 -2 -0 -1 0 -2 0 -0 -1 0 0 -0 1 -3 -2 -4 1 0 0 1 -0 -1
-1 0 1 2 2 1 1 1 0 5 3 5 1 0 -1 -1 -0 -1 -0 -1 0 -1 -2 -1 -1 -0 1 -2 -0 -1 -1 1 1 0 2 1 -0 -0 -1 -0 -0 -0 -0
1 -1 -1 -1 1 3 1 -0 -3 -3 -3 -3 -2 -1 -2 1 0 -1 -1 -1 -1 0 -0 -0 -1 -2 -1 -0 -1 0 -1 -2 1 0 -2 -0 -1 4 -0 -2 -1 -0 0
-4 -0 -4 -2 -0 -1 -1 -0 -0 1 2 1 -1 -1 -2 -3 -2 -1 -1 -0 -1 1 1 1 0 -1 -3 -2 -1 -1 -0 -0 -1 2 -1 -1 1 8 -0 -0 -1 1 -1
1 -1 2 1 -1 -1 -1 -1 -0 0 -1 -1 -0 0 -1 0 -0 -1 -1 -2 -2 -3 -3 -2 -1 1 -0 -1 -2 -2 0 -0 -1 -0 -1 0 2 6 0 -0 0 -0 -1
1 1 0 0 -1 -0 -0 0 1 0 0 -1 -1 -0 1 1 0 -0 -2 0 -0 1 -3 -5 -2 -2 0 1 -0 -1 -2 -0 -0 -1 -3 -3 -2 2 1 1 1 0 -1
1 1 1 1 1 0 0 -0 1 1 0 1 0 0 0 -2 -1 0 1 1 1 -1 -0 0 -0 -3 -2 -1 -1 -1 1 -1 -1 0 -1 -1 -0 -4 5 3 2 4 0
1 1 3 2 2 1 3 1 1 -0 -1 -1 -2 -1 -1 -1 0 2 2 1 0 -1 1 1 -1 0 0 -3 -2 -1 -2 -2 -1 -0 -2 0 -2 6 12 -1 0 1 2
-1 -1 -0 -0 1 1 0 0 -0 4 -2 3 -2 5 2 2 -2 -0 -1 1 2 -0 -1 -0 1 0 2 -1 -2 -1 0 0 -0 -0 -1 0 1 0 2 -0 -0 -1 -2
-0 -1 -0 -1 -0 0 -0 -1 1 -2 0 -4 3 -3 2 1 0 1 -0 1 2 -0 0 -1 -1 -0 1 1 -2 3 1 -2 -0 1 3 0 -2 1 2 8 3 0 -2
0 0 1 2 2 1 2 -1 -1 1 4 2 -2 0 -2 -2 -0 -2 2 -0 0 -0 0 -1 0 -1 -0 2 1 1 -0 1 -2 -1 1 2 1 -1 -1 0 1 1 -0
-0 -1 -2 -3 -1 1 1 2 3 3 1 -2 -1 3 5 5 3 0 2 -1 -2 2 1 -1 -1 -0 1 -2 2 3 0 3 2 -1 -3 3 1 -1 -0 -3 2 1 6
0 0 0 0 1 0 -4 -1 0 -1 -2 -1 -0 2 0 -2 -3 -1 1 1 -0 -5 1 4 1 -0 2 2 0 -2 1 2 -1 -0 -2 -1 0 1 -0 -1 -2 4 6
-1 -1 -0 1 2 1 1 2 1 -2 -1 -3 -2 1 -1 3 1 1 2 -1 -4 1 -2 -1 1 1 -1 0 1 3 1 4 -1 -3 -2 3 1 1 3 1 1 -1 -0
1 1 -0 -1 -1 -0 -0 1 1 1 -2 2 -1 -1 -2 -1 0 3 -1 -1 -0 2 -1 2 -1 -1 1 0 2 -1 1 2 3 0 -4 -3 -0 1 2 -1 -10 1 3
1 1 0 0 0 0 -1 0 -0 2 -1 1 -1 0 -0 -3 -1 -0 1 2 1 -0 -0 -2 2 -1 -3 -1 -1 1 -1 -0 -0 2 2 -1 -3 -2 3 -0 4 1 -2
2 0 1 0 -1 0 0 1 -0 0 -1 1 2 1 2 0 -1 -1 -0 0 -1 1 2 -0 -2 1 0 0 -2 -0 -2 2 1 -0 2 2 4 1 -3 -1 1 0 2
1 1 -2 -0 -0 -1 -1 1 0 1 1 0 -1 -0 -1 1 1 -0 -0 -1 -2 0 1 1 1 -3 1 0 -0 -1 1 -1 -2 3 4 1 1 4 2 1 -2 -1 -0
0 -1 3 -3 -1 2 1 -0 0 -0 3 -0 2 1 0 -1 1 0 0 0 -1 -0 -1 1 -0 -1 -2 2 -2 -2 -4 2 -1 1 -2 2 1 -1 0 2 -0 -1 1
0 1 0 3 -3 -2 1 -1 -1 -0 -1 -0 1 1 2 0 -0 -0 0 0 -1 -2 1 0 2 -1 -6 4 3 -2 -2 -4 -2 1 -1 0 -1 1 -0 -1 2 0 -1
0 -2 -2 -2 1 -2 -3 0 -3 -4 -4 -1 -3 2 4 2 1 1 0 -2 1 -1 -1 0 0 -1 -2 -2 0 6 -1 1 -7 -11 3 -7 -1 -0 2 -0 1 2 2
-2 -1 -1 0 -1 -3 -1 -1 -3 -2 -1 -4 -0 -1 1 -1 0 -2 -3 -1 -1 2 2 -1 -1 -2 0 -2 -2 0 1 2 3 -3 -15 7 -8 1 0 1 -0 -1 2
1 1 2 1 2 -2 -2 -3 -2 -5 -7 -6 -5 -8 -6 -6 -3 3 5 -1 -3 -6 1 2 3 -0 -2 -3 1 0 -5 -3 4 0 -1 -5 -3 1 -4 3 2 1 0
Height
3173 3173 3175 3176 3177 3177 3178 3178 3178 3178 3179 3179 3179 3180 3180 3180 3179 3180 3179 3179 3179 3178 3178 3177 3176 3176 3175 3174 3172 3172 3172 3173 3174 3175 3175 3176 3178 3179 3181 3182 3183 3183 3184
3175 3176 3176 3177 3177 3178 3178 3179 3179 3179 3180 3180 3180 3180 3180 3180 3180 3180 3180 3180 3179 3179 3178 3177 3177 3176 3175 3175 3174 3173 3173 3174 3174 3175 3176 3177 3179 3180 3182 3182 3184 3184 3185
3176 3177 3177 3177 3178 3178 3179 3179 3179 3179 3180 3180 3180 3181 3181 3181 3181 3180 3180 3180 3179 3179 3178 3178 3177 3176 3176 3175 3175 3173 3173 3174 3174 3176 3177 3178 3179 3181 3182 3183 3184 3185 3186
3176 3177 3178 3178 3178 3179 3179 3179 3179 3180 3180 3180 3180 3181 3181 3181 3180 3180 3181 3180 3180 3179 3179 3178 3177 3176 3176 3175 3175 3175 3174 3174 3175 3176 3177 3178 3179 3180 3182 3183 3184 3185 3186
3177 3177 3178 3178 3178 3179 3178 3178 3179 3179 3179 3180 3180 3180 3180 3180 3180 3180 3180 3180 3180 3180 3179 3178 3178 3177 3176 3176 3175 3175 3175 3174 3175 3176 3178 3180 3180 3182 3183 3183 3184 3185 3186
3175 3176 3177 3178 3179 3179 3179 3179 3179 3179 3180 3180 3181 3181 3181 3181 3180 3179 3179 3179 3179 3179 3179 3178 3178 3177 3177 3176 3175 3175 3174 3175 3175 3176 3178 3179 3181 3182 3183 3184 3184 3185 3186
3173 3176 3177 3177 3178 3178 3178 3178 3178 3179 3179 3179 3179 3180 3180 3180 3180 3180 3179 3178 3177 3177 3177 3178 3177 3177 3176 3176 3175 3174 3174 3174 3175 3176 3176 3178 3180 3183 3184 3184 3185 3185 3186
3175 3176 3176 3177 3177 3178 3178 3178 3178 3178 3178 3178 3178 3178 3178 3178 3178 3178 3178 3178 3178 3177 3176 3176 3176 3176 3176 3176 3175 3175 3174 3174 3174 3175 3176 3177 3179 3181 3183 3185 3185 3186 3186
3174 3175 3175 3175 3176 3176 3176 3176 3176 3176 3176 3175 3175 3175 3174 3174 3174 3174 3174 3175 3176 3175 3176 3176 3175 3174 3174 3174 3175 3174 3174 3173 3173 3174 3175 3177 3178 3180 3182 3183 3184 3186 3186
3173 3173 3173 3174 3173 3173 3173 3173 3173 3173 3173 3173 3172 3172 3171 3171 3170 3170 3171 3172 3172 3172 3173 3173 3174 3174 3173 3173 3173 3173 3173 3173 3173 3173 3174 3176 3177 3179 3180 3181 3183 3185 3186
3171 3171 3172 3172 3171 3171 3171 3171 3171 3170 3170 3169 3169 3169 3168 3168 3168 3168 3168 3168 3168 3169 3170 3170 3171 3171 3171 3171 3171 3171 3171 3172 3171 3171 3172 3174 3175 3177 3178 3180 3182 3183 3185
3169 3169 3169 3170 3170 3169 3169 3168 3168 3168 3167 3166 3165 3166 3166 3165 3164 3164 3164 3165 3165 3164 3165 3167 3167 3168 3169 3169 3169 3170 3169 3169 3170 3170 3170 3171 3173 3175 3177 3179 3181 3182 3183
3168 3168 3168 3168 3167 3167 3167 3166 3165 3164 3164 3163 3163 3163 3163 3162 3162 3161 3161 3161 3162 3162 3161 3162 3163 3164 3165 3166 3166 3167 3167 3167 3167 3168 3168 3169 3170 3171 3173 3176 3177 3179 3181
3166 3166 3165 3165 3165 3164 3164 3161 3161 3162 3162 3161 3158 3159 3159 3159 3159 3158 3158 3157 3157 3158 3158 3158 3158 3159 3161 3162 3163 3163 3164 3165 3165 3165 3165 3167 3168 3169 3170 3172 3174 3176 3179
3162 3162 3161 3161 3161 3161 3160 3158 3158 3157 3156 3154 3154 3156 3156 3155 3155 3155 3155 3154 3154 3153 3153 3154 3154 3154 3155 3157 3158 3160 3160 3160 3161 3162 3162 3163 3164 3165 3167 3168 3170 3172 3173
3158 3157 3157 3157 3156 3155 3154 3154 3154 3153 3151 3149 3148 3150 3150 3149 3149 3150 3149 3149 3149 3149 3149 3149 3149 3150 3150 3150 3152 3154 3156 3157 3156 3157 3158 3159 3161 3162 3163 3165 3167 3168 3170
3153 3153 3152 3151 3150 3150 3149 3148 3147 3146 3146 3145 3143 3144 3143 3144 3144 3144 3144 3142 3142 3144 3145 3144 3144 3144 3144 3145 3146 3146 3148 3150 3151 3153 3153 3155 3156 3157 3158 3159 3162 3164 3166
3148 3147 3147 3146 3146 3144 3143 3141 3140 3140 3138 3138 3138 3137 3136 3136 3137 3137 3136 3136 3136 3138 3137 3138 3138 3137 3138 3138 3139 3140 3140 3142 3144 3147 3148 3149 3152 3153 3154 3155 3156 3157 3159
3141 3141 3140 3140 3140 3139 3137 3135 3134 3133 3131 3131 3129 3128 3129 3129 3128 3128 3128 3128 3128 3129 3130 3130 3131 3131 3131 3131 3131 3132 3133 3135 3136 3137 3139 3142 3144 3147 3150 3151 3150 3151 3153
3135 3134 3133 3132 3131 3130 3129 3128 3127 3125 3124 3122 3121 3120 3119 3119 3119 3119 3119 3119 3118 3120 3121 3122 3123 3122 3123 3123 3123 3123 3125 3126 3128 3130 3132 3134 3136 3137 3141 3144 3146 3146 3148
3128 3127 3125 3124 3124 3122 3121 3120 3119 3118 3116 3114 3112 3111 3109 3109 3109 3109 3110 3110 3109 3109 3110 3112 3112 3113 3114 3114 3114 3115 3116 3117 3119 3121 3123 3125 3127 3129 3131 3133 3137 3140 3141
3121 3119 3118 3116 3115 3114 3112 3111 3109 3108 3108 3105 3104 3103 3101 3100 3098 3097 3098 3098 3099 3098 3099 3100 3101 3102 3103 3105 3104 3104 3104 3109 3110 3111 3113 3115 3118 3120 3121 3123 3125 3129 3132
3115 3113 3111 3109 3107 3105 3104 3102 3101 3099 3098 3096 3095 3094 3092 3090 3089 3088 3087 3087 3087 3086 3087 3088 3089 3089 3089 3094 3096 3095 3094 3095 3098 3102 3103 3105 3107 3110 3112 3114 3116 3118 3121
3107 3106 3104 3102 3099 3097 3095 3093 3091 3089 3087 3086 3083 3083 3082 3081 3079 3078 3077 3076 3075 3074 3073 3075 3076 3076 3076 3077 3084 3085 3084 3085 3085 3087 3092 3093 3097 3100 3102 3105 3107 3109 3112
3101 3099 3097 3094 3092 3090 3087 3084 3080 3078 3075 3072 3071 3067 3067 3066 3065 3063 3062 3062 3061 3061 3061 3060 3063 3062 3062 3064 3066 3071 3073 3074 3075 3075 3075 3082 3086 3090 3093 3095 3097 3099 3102
3093 3091 3088 3085 3082 3078 3074 3071 3067 3063 3059 3055 3053 3050 3047 3045 3044 3045 3044 3042 3042 3042 3043 3044 3045 3047 3049 3049 3050 3054 3057 3060 3063 3065 3065 3067 3071 3077 3081 3085 3087 3089 3092